AirNav   Air Wisconsin Up To $57,000 Bonus
 
 1154 users online  

I83 Salem Municipal Airport
Salem, Indiana, USA

GOING TO SALEM?


FAA INFORMATION EFFECTIVE 22 APRIL 2021

Location

FAA Identifier: I83
Lat/Long: 38-36-14.6725N 086-09-08.1058W
38-36.244542N 086-09.135097W
38.6040757,-86.1522516
(estimated)
Elevation: 839.9 ft. / 256 m (estimated)
Variation: 04W (2015)
From city: 2 miles W of SALEM, IN
Time zone: UTC -4 (UTC -5 during Standard Time)
Zip code: 47167

Airport Operations

Airport use: Open to the public
Control tower: no
ARTCC: INDIANAPOLIS CENTER
FSS: TERRE HAUTE FLIGHT SERVICE STATION
NOTAMs facility: HUF (NOTAM-D service available)
Attendance: IREG
Wind indicator: lighted
Segmented circle: no
Lights: ACTVT PAPI RWY 08; MIRL RWY 08/26 - CTAF. MIRL RWY 08/26 PRESET LOW INTST TO INCR INTST - CTAF.

Airport Communications

CTAF/UNICOM: 123.0
WX AWOS-3 at BFR (20 nm NW): 119.125 (812-275-8306)
  • UNICOM NOT RGRLY MNTRD.

Nearby radio navigation aids

VOR radial/distance  VOR name  Freq  Var
OOMr148/38.9HOOSIER VORTAC110.2002W

 
NDB name  Hdg/Dist  Freq  Var  ID
GODMAN351/39.639603WGOI --. --- ..

Airport Services

Fuel available: 100LL
FUEL AVBL H24 WITH CREDIT CARD.
Parking: buoy and tiedowns
Airframe service: NONE
Powerplant service: NONE

Runway Information

Runway 8/26

Dimensions: 3000 x 75 ft. / 914 x 23 m
Surface: asphalt, in good condition
Weight bearing capacity: 
Single wheel: 30.0
Double wheel: 60.0
Runway edge lights: medium intensity
RUNWAY 8  RUNWAY 26
Latitude: 38-36.191155N38-36.297912N
Longitude: 086-09.442703W086-08.827420W
Elevation: 839.9 ft.816.4 ft.
Traffic pattern: leftleft
Markings: nonprecision, in good conditionnonprecision, in good condition
Visual slope indicator: 2-light PAPI on left (3.00 degrees glide path)
Runway end identifier lights: yesyes

Airport Ownership and Management from official FAA records

Ownership: Publicly-owned
Owner: SALEM BOARD OF AVN CMSNRS
334 N AIRPORT BLVD
SALEM, IN 47167
Phone (812) 883-5858
Manager: LOWELL DEPOY
334 N AIRPORT BLVD
SALEM, IN 47167
Phone (812) 896-4775

Airport Operational Statistics

Aircraft based on the field: 28
Single engine airplanes: 23
Multi engine airplanes: 1
Helicopters: 2
Ultralights: 2
    
Aircraft operations: avg 105/week *
73% local general aviation
27% transient general aviation
* for 12-month period ending 31 December 2018

Additional Remarks

FOR CD CTC LOUISVILLE APCH AT 502-375-7499

Instrument Procedures

There are no published instrument procedures at I83.

Some nearby airports with instrument procedures:

KBFR - Virgil I Grissom Municipal Airport (20 nm NW)
KSER - Freeman Municipal Airport (22 nm NE)
KFRH - French Lick Municipal Airport (23 nm W)
KJVY - Clark Regional Airport (24 nm SE)
KLOU - Bowman Field Airport (32 nm SE)
 
Loc | Ops | Rwys | IFR | FBO | Links
Com | Nav | Svcs | Stats | Notes
Area around I83 (Salem Municipal Airport)
 
Road maps at: MapQuest Bing Google
 
Aerial photo
WARNING: Photo may not be current or correct
Aerial photo of I83 (Salem Municipal Airport)
Photo by Phil Brooks
Photo taken 12-Sep-2019
looking west.

Do you have a better or more recent aerial photo of Salem Municipal Airport that you would like to share? If so, please send us your photo.

 
Sectional chart

 
Airport distance calculator
Flying to Salem Municipal Airport? Find the distance to fly.

From to I83

Sunrise and sunset
Times for 08-May-2021
 Local
(UTC-4)
 Zulu
(UTC)
Morning civil twilight06:1110:11
Sunrise06:4010:40
Sunset20:4200:42
Evening civil twilight21:1101:11

Current date and time
Zulu (UTC)  08-May-2021 18:30:58
Local (UTC-4)  08-May-2021 14:30:58
 
METAR
KFRH 
23nm W 
081815Z AUTO 21004KT 10SM BKN090 13/M03 A3012 RMK AO1
KJVY 
24nm SE 
081815Z AUTO 00000KT 10SM CLR 15/M01 A3013 RMK AO2 T01451007 TSNO
KSDF 
32nm SE 
081756Z 00000KT 10SM BKN110 BKN200 16/M02 A3013 RMK AO2 SLP202 T01611017 10167 20083 58008 $
KLOU 
33nm SE 
081753Z VRB03KT 10SM FEW110 15/M01 A3013 RMK AO2 SLP203 T01501006 10156 20083 58007
KIMS 
34nm E 
081815Z AUTO 00000KT 10SM CLR 13/00 A3014 RMK AO2
KBMG 
39nm NW 
081753Z 00000KT 10SM CLR 14/M02 A3011 RMK AO2 SLP196 T01391022 10150 20044 58012
KBAK 
41nm N 
081747Z 33003KT 10SM FEW050 SCT150 12/00 A3015
KHNB 
43nm SW 
081756Z AUTO 17003KT 10SM OVC080 14/03 A3013 RMK AO2 SLP205 T01390028 10150 20067 58007
KFTK 
44nm S 
081756Z 23007KT 7SM BKN100 BKN250 16/02 A3011 RMK AO2A SLP198 T01630019 10167 20070 58006
KDCY 
46nm W 
081815Z AUTO 00000KT 10SM BKN090 OVC100 14/00 A3012 RMK AO2 T01421003
TAF
KSDF 
32nm SE 
081730Z 0818/0924 VRB03KT P6SM SCT100 FM082200 12006KT P6SM VCSH OVC070 FM090400 12010KT P6SM OVC080 FM090900 16014KT P6SM -SHRA OVC070 WS020/20045KT FM091400 21020G28KT P6SM VCSH SCT025 BKN060 TEMPO 0916/0920 3SM TSRA OVC025CB FM092100 24020G28KT P6SM BKN025
KBMG 
39nm NW 
081723Z 0818/0918 VRB04KT P6SM FEW250 FM090600 10008KT 6SM SHRA BR OVC027 FM090900 12010G19KT 6SM SHRA BR VCTS OVC035CB FM091200 15009KT 6SM SHRA BR OVC024 FM091300 18010G20KT 5SM SHRA BR OVC017 FM091600 22012G26KT 4SM SHRA BR BKN008
NOTAMs
Click for the latest NOTAMs
NOTAMs are issued by the DoD/FAA and will open in a separate window not controlled by AirNav.

 

 
 

FBO, Fuel Providers, and Aircraft Ground Support

  
 Business Name 
 
 Contact 
 
 Services / Description 
 
Fuel Prices
 
Comments
  
Salem Municipal Airport 812-883-4265
812-883-4264
[web site]
[email]
Aviation fuel, Hangar leasing / sales, Public telephone, Internet access, Restrooms

More info about Salem Municipal Airport
independent
100LL
SS $4.37 
 Updated 29-Apr-2021
 
   write
SS=Self service
Update Fuel Prices
 

Would you like to see your business listed on this page?

 If your business provides an interesting product or service to pilots, flight crews, aircraft, or users of the Salem Municipal Airport, you should consider listing it here.  To start the listing process, click on the button below
 
Add a business
 

Other Pages about Salem Municipal Airport

cityofsalemin.com/...
 
Update a link
 
Copyright © AirNav, LLC. All rights reserved. Privacy Policy  Contact